| time (UTC) | temp F | wind direction | speed knots | gust knots | rain 1hr in | rain 24hr in | rain mn in | humidity % | barometer mb |
| 20260510233030 | 80 | 0 | 0.0 | 2.6 | 0.00 | 0.00 | 0.00 | 55 | 1015.6 |
| 20260510231532 | 81 | 171 | 0.0 | 1.7 | 0.00 | 0.00 | 0.00 | 54 | 1015.6 |
| 20260510230031 | 82 | 0 | 0.0 | 2.6 | 0.00 | 0.00 | 0.00 | 51 | 1015.6 |
| 20260510224531 | 83 | 0 | 0.0 | 2.6 | 0.00 | 0.00 | 0.00 | 48 | 1015.6 |
| 20260510223026 | 82 | 0 | 0.0 | 3.5 | 0.00 | 0.00 | 0.00 | 51 | 1015.5 |
| 20260510221528 | 83 | 229 | 0.9 | 4.3 | 0.00 | 0.00 | 0.00 | 48 | 1015.5 |
| 20260510220031 | 83 | 0 | 0.0 | 5.2 | 0.00 | 0.00 | 0.00 | 48 | 1015.5 |
| 20260510214530 | 84 | 257 | 0.0 | 1.7 | 0.00 | 0.00 | 0.00 | 47 | 1015.5 |
| 20260510213029 | 83 | 199 | 0.9 | 5.2 | 0.00 | 0.00 | 0.00 | 47 | 1015.4 |
| 20260510211534 | 82 | 305 | 0.0 | 3.5 | 0.00 | 0.00 | 0.00 | 49 | 1015.4 |
| 20260510210028 | 83 | 200 | 0.9 | 4.3 | 0.00 | 0.00 | 0.00 | 47 | 1015.4 |
| 20260510204535 | 83 | 0 | 0.0 | 3.5 | 0.00 | 0.00 | 0.00 | 52 | 1015.4 |
| 20260510203029 | 83 | 0 | 0.0 | 4.3 | 0.00 | 0.00 | 0.00 | 49 | 1015.4 |
| 20260510201530 | 83 | 0 | 0.9 | 4.3 | 0.00 | 0.00 | 0.00 | 53 | 1015.6 |
| 20260510200028 | 82 | 232 | 0.9 | 5.2 | 0.00 | 0.00 | 0.00 | 52 | 1015.6 |
| 20260510194530 | 81 | 0 | 0.9 | 4.3 | 0.00 | 0.00 | 0.00 | 51 | 1015.6 |
| 20260510193032 | 81 | 63 | 0.0 | 1.7 | 0.00 | 0.00 | 0.00 | 57 | 1015.7 |
| 20260510191535 | 81 | 209 | 1.7 | 4.3 | 0.00 | 0.00 | 0.00 | 53 | 1016.0 |
| 20260510190041 | 81 | 239 | 0.9 | 3.5 | 0.00 | 0.00 | 0.00 | 55 | 1016.0 |
| 20260510184531 | 81 | 218 | 2.6 | 5.2 | 0.00 | 0.00 | 0.00 | 55 | 1015.9 |
| 20260510183028 | 81 | 0 | 0.0 | 4.3 | 0.00 | 0.00 | 0.00 | 58 | 1016.2 |
| 20260510181530 | 80 | 241 | 0.9 | 3.5 | 0.00 | 0.00 | 0.00 | 56 | 1016.2 |
| 20260510180059 | 80 | 204 | 0.9 | 4.3 | 0.00 | 0.00 | 0.00 | 57 | 1016.2 |
| 20260510174527 | 80 | 170 | 0.0 | 3.5 | 0.00 | 0.00 | 0.00 | 56 | 1016.2 |
| 20260510173031 | 79 | 205 | 0.0 | 3.5 | 0.00 | 0.00 | 0.00 | 55 | 1016.4 |
| 20260510171538 | 79 | 0 | 0.0 | 1.7 | 0.00 | 0.00 | 0.00 | 56 | 1016.6 |
| 20260510170028 | 78 | 0 | 0.9 | 3.5 | 0.00 | 0.00 | 0.00 | 59 | 1016.7 |
| 20260510164528 | 77 | 160 | 0.0 | 3.5 | 0.00 | 0.00 | 0.00 | 60 | 1017.0 |
| 20260510163033 | 76 | 0 | 0.0 | 2.6 | 0.00 | 0.00 | 0.00 | 62 | 1017.0 |
| 20260510161530 | 75 | 32 | 0.0 | 4.3 | 0.00 | 0.00 | 0.00 | 64 | 1017.1 |
| 20260510160033 | 75 | 0 | 0.0 | 4.3 | 0.00 | 0.00 | 0.00 | 66 | 1017.3 |
| 20260510154530 | 74 | 119 | 0.9 | 3.5 | 0.00 | 0.00 | 0.00 | 66 | 1017.2 |
| 20260510153038 | 73 | 29 | 0.0 | 3.5 | 0.00 | 0.00 | 0.00 | 69 | 1017.2 |
| 20260510151530 | 72 | 0 | 0.9 | 3.5 | 0.00 | 0.00 | 0.00 | 73 | 1017.2 |
| 20260510150030 | 71 | 32 | 0.0 | 3.5 | 0.00 | 0.00 | 0.00 | 79 | 1017.3 |
| 20260510144529 | 69 | 131 | 0.0 | 3.5 | 0.00 | 0.00 | 0.00 | 81 | 1017.2 |
| 20260510143030 | 68 | 65 | 0.0 | 4.3 | 0.00 | 0.00 | 0.00 | 83 | 1017.2 |
| 20260510141531 | 68 | 0 | 0.9 | 3.5 | 0.00 | 0.00 | 0.00 | 86 | 1017.3 |
| 20260510140029 | 67 | 0 | 0.0 | 3.5 | 0.00 | 0.00 | 0.00 | 89 | 1017.1 |
| 20260510134530 | 65 | 49 | 0.0 | 1.7 | 0.00 | 0.00 | 0.00 | 91 | 1017.1 |
| 20260510133027 | 64 | 306 | 0.0 | 1.7 | 0.00 | 0.00 | 0.00 | 94 | 1017.1 |
| 20260510131528 | 63 | 0 | 0.0 | 1.7 | 0.00 | 0.00 | 0.00 | 96 | 1017.0 |
| 20260510130028 | 63 | 0 | 0.0 | 2.6 | 0.00 | 0.00 | 0.00 | 97 | 1017.0 |
| 20260510124530 | 62 | 0 | 0.0 | 0.0 | 0.00 | 0.00 | 0.00 | 98 | 1017.0 |
| 20260510123027 | 61 | 0 | 0.0 | 0.0 | 0.00 | 0.00 | 0.00 | 98 | 1016.6 |
| 20260510121530 | 60 | 0 | 0.0 | 0.0 | 0.00 | 0.00 | 0.00 | 98 | 1016.5 |
| 20260510120027 | 59 | 0 | 0.0 | 0.9 | 0.00 | 0.00 | 0.00 | 98 | 1016.2 |
| 20260510114527 | 58 | 0 | 0.0 | 0.0 | 0.00 | 0.00 | 0.00 | 97 | 1015.9 |
| 20260510113036 | 57 | 0 | 0.0 | 0.0 | 0.00 | 0.00 | 0.00 | 97 | 1015.7 |
| 20260510111530 | 57 | 0 | 0.0 | 0.0 | 0.00 | 0.00 | 0.00 | 96 | 1015.5 |
| 20260510110042 | 57 | 0 | 0.0 | 0.0 | 0.00 | 0.00 | 0.00 | 96 | 1015.3 |
| 20260510104528 | 57 | 0 | 0.0 | 0.0 | 0.00 | 0.00 | 0.00 | 96 | 1014.9 |
| 20260510103027 | 58 | 0 | 0.0 | 0.0 | 0.00 | 0.00 | 0.00 | 96 | 1014.7 |
| 20260510101527 | 58 | 0 | 0.0 | 0.0 | 0.00 | 0.00 | 0.00 | 96 | 1014.7 |
| 20260510100039 | 59 | 0 | 0.0 | 0.0 | 0.00 | 0.00 | 0.00 | 96 | 1014.4 |
| 20260510094537 | 59 | 0 | 0.0 | 0.0 | 0.00 | 0.00 | 0.00 | 96 | 1014.3 |
| 20260510093036 | 59 | 0 | 0.0 | 0.0 | 0.00 | 0.00 | 0.00 | 96 | 1014.3 |
| 20260510091530 | 59 | 0 | 0.0 | 0.0 | 0.00 | 0.00 | 0.00 | 96 | 1014.3 |
| 20260510090030 | 60 | 0 | 0.0 | 0.0 | 0.00 | 0.00 | 0.00 | 96 | 1014.0 |
| 20260510084532 | 60 | 0 | 0.0 | 0.0 | 0.00 | 0.00 | 0.00 | 96 | 1013.8 |
| 20260510083030 | 60 | 0 | 0.0 | 0.0 | 0.00 | 0.00 | 0.00 | 96 | 1013.8 |
| 20260510081539 | 60 | 0 | 0.0 | 0.0 | 0.00 | 0.00 | 0.00 | 96 | 1013.7 |
| 20260510080047 | 60 | 0 | 0.0 | 0.0 | 0.00 | 0.00 | 0.00 | 96 | 1013.6 |
| 20260510074528 | 61 | 0 | 0.0 | 0.0 | 0.00 | 0.00 | 0.00 | 96 | 1013.7 |
| 20260510073039 | 61 | 0 | 0.0 | 0.0 | 0.00 | 0.00 | 0.00 | 95 | 1013.5 |
| 20260510071528 | 61 | 0 | 0.0 | 0.0 | 0.00 | 0.00 | 0.00 | 95 | 1013.5 |
| 20260510070042 | 61 | 0 | 0.0 | 0.0 | 0.00 | 0.00 | 0.00 | 95 | 1013.5 |
| 20260510064530 | 61 | 0 | 0.0 | 0.0 | 0.00 | 0.00 | 0.00 | 94 | 1013.4 |
| 20260510063034 | 62 | 0 | 0.0 | 0.9 | 0.00 | 0.00 | 0.00 | 93 | 1013.4 |
| 20260510061527 | 63 | 0 | 0.0 | 1.7 | 0.00 | 0.00 | 0.00 | 95 | 1013.4 |
| 20260510060037 | 62 | 0 | 0.0 | 0.9 | 0.00 | 0.00 | 0.00 | 95 | 1013.4 |
| 20260510054529 | 62 | 0 | 0.0 | 0.0 | 0.00 | 0.00 | 0.00 | 94 | 1013.5 |
| 20260510053100 | 62 | 0 | 0.0 | 0.9 | 0.00 | 0.00 | 0.00 | 96 | 1013.5 |
| 20260510051530 | 62 | 0 | 0.0 | 1.7 | 0.00 | 0.00 | 0.00 | 96 | 1013.6 |
| 20260510050034 | 61 | 0 | 0.0 | 0.0 | 0.00 | 0.00 | 0.00 | 96 | 1013.7 |
| 20260510044528 | 61 | 0 | 0.0 | 0.0 | 0.00 | 0.00 | 0.00 | 95 | 1013.9 |
| 20260510043030 | 62 | 0 | 0.0 | 0.0 | 0.00 | 0.00 | 0.00 | 95 | 1013.9 |
| 20260510041528 | 62 | 0 | 0.0 | 0.0 | 0.00 | 0.00 | 0.00 | 95 | 1014.1 |
| 20260510040029 | 62 | 0 | 0.0 | 0.0 | 0.00 | 0.00 | 0.00 | 95 | 1014.1 |
| 20260510034528 | 62 | 0 | 0.0 | 0.0 | 0.00 | 0.00 | 0.00 | 95 | 1014.2 |
| 20260510033042 | 62 | 0 | 0.0 | 0.0 | 0.00 | 0.00 | 0.00 | 95 | 1014.0 |
| 20260510031532 | 62 | 0 | 0.0 | 0.0 | 0.00 | 0.00 | 0.00 | 94 | 1014.1 |
| 20260510030028 | 62 | 0 | 0.0 | 0.0 | 0.00 | 0.00 | 0.00 | 94 | 1014.2 |
| 20260510024528 | 63 | 0 | 0.0 | 0.0 | 0.00 | 0.00 | 0.00 | 94 | 1014.1 |
| 20260510023030 | 63 | 0 | 0.0 | 0.0 | 0.00 | 0.00 | 0.00 | 94 | 1014.0 |
| 20260510021611 | 63 | 0 | 0.0 | 0.0 | 0.00 | 0.00 | 0.00 | 93 | 1013.7 |
| 20260510020031 | 63 | 0 | 0.0 | 0.0 | 0.00 | 0.00 | 0.00 | 93 | 1013.7 |
| 20260510014542 | 64 | 0 | 0.0 | 0.0 | 0.00 | 0.00 | 0.00 | 92 | 1013.6 |
| 20260510013031 | 64 | 0 | 0.0 | 0.0 | 0.00 | 0.00 | 0.00 | 92 | 1013.5 |
| 20260510011530 | 64 | 0 | 0.0 | 0.0 | 0.00 | 0.00 | 0.00 | 91 | 1013.4 |
| 20260510010039 | 65 | 0 | 0.0 | 0.0 | 0.00 | 0.00 | 0.00 | 90 | 1013.1 |
| 20260510004528 | 65 | 0 | 0.0 | 0.0 | 0.00 | 0.00 | 0.00 | 89 | 1012.9 |
| 20260510003030 | 66 | 0 | 0.0 | 0.0 | 0.00 | 0.00 | 0.00 | 89 | 1012.6 |
| 20260510001527 | 66 | 0 | 0.0 | 0.0 | 0.00 | 0.00 | 0.00 | 88 | 1012.7 |
| 20260510000028 | 67 | 0 | 0.0 | 0.0 | 0.00 | 0.00 | 0.00 | 88 | 1012.5 |
| 20260509234529 | 67 | 0 | 0.0 | 0.0 | 0.00 | 0.00 | 0.00 | 86 | 1012.5 |